This is the latest recevied weather packets stored in our database for station/object JK1DXQ-13. If no packets are shown the sender has not sent any weather packets the latest 10 day(s).
| Time | Temp. | Humidity | Pressure | Rain* | Wind** | Luminosity | Snow |
|---|---|---|---|---|---|---|---|
| 1777259178 | 16.11° C | 97% | 1004.2 hPa | 0 mm | - | - | - |
| 1777257977 | 15° C | 99% | 1004.8 hPa | 0 mm | - | - | - |
| 1777256778 | 14.44° C | 99% | 1004.6 hPa | 0 mm | - | - | - |
| 1777255577 | 15° C | 99% | 1004.5 hPa | 0.76 mm | - | - | - |
| 1777254378 | 14.44° C | 99% | 1004.1 hPa | 2.79 mm | - | - | - |
| 1777253178 | 13.33° C | 99% | 1003.9 hPa | 3.81 mm | - | - | - |
| 1777251977 | 13.33° C | 99% | 1005.2 hPa | 5.33 mm | - | - | - |
| 1777250777 | 13.33° C | 99% | 1005.9 hPa | 5.84 mm | - | - | - |
| 1777249578 | 13.33° C | 99% | 1006.2 hPa | 6.35 mm | - | - | - |
| 1777248378 | 13.33° C | 99% | 1006.2 hPa | 5.33 mm | - | - | - |
| 1777247177 | 13.89° C | 99% | 1006.2 hPa | 4.83 mm | - | - | - |
| 1777245978 | 13.89° C | 99% | 1006.4 hPa | 6.1 mm | - | - | - |
| 1777244777 | 13.89° C | 99% | 1006.6 hPa | 8.64 mm | - | - | - |
| 1777243578 | 13.89° C | 99% | 1007.2 hPa | 11.68 mm | - | - | - |
| 1777242377 | 13.89° C | 99% | 1007.6 hPa | 12.7 mm | - | - | - |
| 1777241178 | 13.89° C | 99% | 1007.8 hPa | 11.68 mm | - | - | - |
| 1777239977 | 14.44° C | 99% | 1008 hPa | 9.65 mm | - | - | - |
| 1777238778 | 15° C | 99% | 1007.8 hPa | 7.62 mm | - | - | - |
| 1777237577 | 15° C | 99% | 1008.4 hPa | 6.86 mm | - | - | - |
| 1777236377 | 15.56° C | 98% | 1008.8 hPa | 4.32 mm | - | - | - |
| 1777235178 | 15.56° C | 97% | 1009 hPa | 2.29 mm | - | - | - |
| 1777233977 | 15.56° C | 96% | 1009.2 hPa | 0.76 mm | - | - | - |
| 1777232778 | 15.56° C | 96% | 1009.4 hPa | 0.51 mm | - | - | - |
| 1777231576 | 15.56° C | 96% | 1009.7 hPa | 0.51 mm | - | - | - |
| 1777230377 | 15.56° C | 95% | 1010.1 hPa | 1.02 mm | - | - | - |
* Rain latest hour (hover to see other rain measurements)
** Current wind speed in m/s (hover to see current wind gust speed)